Location: Kernascl�den
(48.0062°N, 3.3198°W)
Time: 17:31:24
(UTC+00:00)

Cosmos 1818 - Pass Details

Date: 21 January 2021
Orbit: 773 x 800 km, 65.0° (Epoch: 28 February)

Event Time Altitude Azimuth Distance (km) Brightness Sun altitude
Rises 19:35:54 0° 235° (SW) 3,272 7.6 -26.3°
Reaches altitude 10° 19:38:23 10° 241° (WSW) 2,351 6.8 -26.7°
Maximum altitude 19:43:38 49° 316° (NW) 1,024 4.3 -27.6°
Enters shadow 19:45:00 40° 357° (N) 1,167 4.4 -27.8°
